Snowfall_Accumulation
0.0 0.0 0.0 0.0 0.0 0.0 0.0 0.0 0.0 0.0 0.0 0.0 0.0 0.0 0.0 0.0 0.0 0.0 0.0 0.0 0.0 0.0
0.0 0.0 0.0 0.0 0.0 0.0 0.0 0.0 0.0 0.0 0.0 0.0 0.0 0.0 0.0 0.0 0.0 0.0 0.0 0.0 0.0 0.0
0.0 0.0 0.0 0.0 0.0 0.0 0.0 0.0 0.0 0.0 0.0 0.0 0.0 0.0 0.0 0.0 0.0 0.0 0.0 0.0 0.0 0.0
0.1 0.0 0.0 0.0 0.0 0.0 0.0 0.0 0.0 0.0 0.0 0.0 0.0 0.0 0.0 0.0 0.0 0.0 0.0 0.0 0.0 0.0
1.3 1.3 0.3 0.1 0.1 0.0 0.0 0.0 0.0 0.0 0.0 0.0 0.0 0.0 0.0 0.0 0.0 0.0 0.0 0.0 0.0 0.0
0.8 1.2 1.7 0.2 0.1 0.0 0.0 0.2 0.1 0.0 0.0 0.1 0.0 0.0 0.0 0.1 0.0 0.1 0.0 0.0 0.0 0.0
1.6 0.3 0.1 0.5 0.1 0.1 0.0 0.0 0.1 0.0 0.0 0.0 0.1 0.0 0.1 0.1 0.1 0.0 0.1 0.0 0.0 0.0
0.2 0.2 0.0 0.0 0.0 0.0 0.0 0.0 0.0 0.1 0.0 0.1 0.0 0.0 0.0 0.0 0.0 0.0 0.0 0.0 0.0 0.0
0.2 0.0 0.1 0.1 0.0 0.0 0.0 0.0 0.0 0.0 0.0 0.1 0.1 nan nan 0.0 0.0 0.0 0.0 0.0 0.1 0.0
0.1 0.0 0.1 0.0 0.0 0.0 0.0 0.0 0.0 0.0 0.0 0.0 0.1 nan nan nan 0.0 0.0 0.0 0.4 0.4 0.2
0.0 0.0 0.0 0.0 0.0 0.0 0.0 0.0 0.0 0.0 0.0 0.0 0.0 nan nan nan 0.0 0.0 0.0 0.1 0.1 0.0
0.0 0.0 0.0 0.0 0.1 0.0 0.1 0.1 0.2 0.1 0.1 0.1 0.1 nan nan 0.0 0.0 0.0 0.2 0.2 0.3 0.4
0.2 0.2 0.4 0.4 0.3 0.2 0.1 0.3 0.7 0.3 0.5 nan 0.8 nan nan nan 0.2 0.7 1.1 0.9 0.7 nan
0.4 0.8 0.7 0.4 0.4 0.7 0.7 0.4 2.5 3.6 2.9 2.9 2.7 2.4 nan nan 1.5 4.3 4.5 4.4 4.9 4.6
Water_Equivalent
0.00 0.00 0.00 0.00 0.00 0.00 0.00 0.00 0.00 0.00 0.00 0.00 0.00 0.00 0.00 0.00 0.00 0.00 0.00 0.00 0.00 0.00
0.00 0.00 0.00 0.00 0.00 0.00 0.00 0.00 0.00 0.00 0.00 0.00 0.00 0.00 0.00 0.00 0.00 0.00 0.00 0.00 0.00 0.00
0.00 0.00 0.00 0.00 0.00 0.00 0.00 0.00 0.00 0.00 0.00 0.00 0.00 0.00 0.00 0.00 0.00 0.00 0.00 0.00 0.00 0.00
0.03 0.02 0.00 0.00 0.00 0.00 0.00 0.00 0.00 0.00 0.00 0.00 0.00 0.00 0.00 0.00 0.00 0.00 0.00 0.00 0.00 0.00
0.50 0.52 0.13 0.05 0.03 0.00 0.00 0.00 0.00 0.00 0.00 0.00 0.00 0.00 0.00 0.00 0.00 0.00 0.00 0.00 0.00 0.00
0.33 0.49 0.68 0.07 0.03 0.00 0.00 0.05 0.01 0.00 0.00 0.01 0.00 0.00 0.01 0.04 0.02 0.03 0.01 0.00 0.01 0.00
0.62 0.09 0.02 0.19 0.02 0.04 0.00 0.00 0.04 0.01 0.01 0.01 0.02 0.01 0.04 0.05 0.04 0.01 0.02 0.01 0.00 0.00
0.05 0.04 0.01 0.01 0.00 0.00 0.00 0.00 0.00 0.01 0.01 0.01 0.01 0.00 0.00 0.00 0.01 0.00 0.00 0.00 0.00 0.00
0.03 0.00 0.01 0.01 0.00 0.00 0.00 0.00 0.00 0.00 0.00 0.01 0.02 nan nan 0.00 0.00 0.00 0.00 0.01 0.01 0.00
0.01 0.00 0.02 0.00 0.00 0.00 0.00 0.00 0.00 0.00 0.00 0.01 0.03 nan nan nan 0.00 0.00 0.01 0.08 0.08 0.04
0.00 0.00 0.00 0.00 0.00 0.00 0.00 0.00 0.01 0.00 0.00 0.00 0.00 nan nan nan 0.00 0.00 0.01 0.01 0.02 0.01
0.01 0.00 0.00 0.01 0.02 0.01 0.02 0.02 0.05 0.03 0.03 0.01 0.01 nan nan 0.00 0.00 0.00 0.04 0.04 0.06 0.07
0.06 0.07 0.12 0.11 0.08 0.06 0.04 0.07 0.17 0.08 0.11 nan 0.18 nan nan nan 0.05 0.13 0.24 0.19 0.14 nan
0.09 0.22 0.16 0.13 0.11 0.26 0.26 0.12 0.65 0.85 0.64 0.60 0.58 0.51 nan nan 0.31 0.87 0.84 0.77 0.83 0.85
SL_Ratio
nan nan nan nan nan nan nan nan nan nan nan nan nan nan nan nan nan nan nan nan nan nan
nan nan nan nan nan nan nan nan nan nan nan nan nan nan nan nan nan nan nan nan nan nan
0.0 nan nan nan nan nan nan nan nan nan nan nan nan nan nan nan nan nan nan nan nan nan
3.8 2.5 0.0 0.0 3.0 5.0 nan nan nan nan nan nan nan nan nan nan nan nan nan nan nan nan
2.5 2.5 2.5 2.5 2.5 3.3 2.9 5.0 nan nan nan nan nan nan nan nan nan nan nan nan nan nan
2.5 2.5 2.5 2.7 2.5 nan nan 4.8 5.6 nan 2.0 4.8 10.0 nan 2.7 2.5 2.5 2.5 2.6 2.9 2.5 nan
2.5 3.5 3.2 2.5 3.1 2.6 nan 2.5 2.6 2.8 3.3 2.9 4.4 3.6 2.5 2.5 2.5 2.5 2.5 2.3 0.0 nan
2.9 5.0 5.0 4.7 nan 1.7 nan nan nan 4.0 4.5 3.9 3.0 2.5 0.0 2.7 2.5 3.3 nan nan nan nan
5.7 0.0 6.3 6.1 0.0 nan nan nan nan nan nan 4.6 5.0 nan nan nan 2.5 4.3 4.0 4.1 5.2 4.0
5.8 5.5 5.8 nan 5.0 5.0 nan nan nan 0.0 nan 3.7 4.4 nan nan nan nan 0.0 3.9 5.0 5.0 4.9
nan 6.7 10.0 nan 10.0 6.7 5.0 6.7 5.0 10.0 10.0 10.0 nan nan nan nan nan nan 4.3 4.7 4.8 4.5
4.3 5.0 nan 4.3 4.2 3.9 4.0 4.1 4.4 4.3 4.4 4.6 4.9 nan nan nan 10.0 3.3 4.9 4.6 5.1 5.2
3.6 3.5 3.2 3.3 3.7 3.3 3.2 4.3 4.0 4.3 4.3 nan 4.7 nan nan nan 4.6 5.4 4.7 5.0 5.0 nan
3.9 3.9 4.1 3.4 3.1 2.7 2.9 3.6 3.8 4.3 4.6 4.9 4.7 4.7 nan nan 4.9 5.0 5.4 5.7 6.0 5.4